Regional Weather Roundup
Issued by NWS Sioux Falls, SD

Home | Current Version | Previous Version | Graphics & Text | Print | Product List | Glossary Off
Versions: 1 2 3 4 5 6 7 8 9 10 11 12 13 14 15 16 17 18 19 20 21 22 23 24 25 26 27 28 29 30 31 32 33 34 35 36 37 38 39 40 41 42 43 44 45 46 47 48 49 50

000
ASUS43 KFSD 301410
RWRFSD

WEATHER ROUNDUP FOR SE SOUTH DAKOTA/SW MINNESOTA/NW IOWA
NATIONAL WEATHER SERVICE SIOUX FALLS SD
900 AM CDT THU OCT 30 2014

NOTE: "FAIR" INDICATES FEW OR NO CLOUDS BELOW 12,000 FEET WITH NO
SIGNIFICANT WEATHER AND OR OBSTRUCTIONS TO VISIBILITY.


SDZ038>040-050-052>070-301500-
SOUTHEAST SOUTH DAKOTA

CITY           SKY/WX    TMP DP  RH WIND       PRES   REMARKS
CHAMBERLAIN    CLEAR     42  37  83 NW21G26   30.14R
HURON          CLEAR     39  36  89 NW16      30.11R
MADISON        FAIR      39  36  87 NW13      30.05R
MITCHELL       CLEAR     42  38  85 NW15      30.10R
SIOUX FALLS    PTCLDY    44  34  67 N12       30.04R
WINNER         FAIR      41  34  76 NW12      30.18R
YANKTON        CLEAR     43  36  75 NW15      30.07R
$$

MNZ071-072-080-081-089-090-097-098-301500-
SOUTHWEST MINNESOTA

CITY           SKY/WX    TMP DP  RH WIND       PRES   REMARKS
FAIRMONT       PTSUNNY   43  25  49 SE8       30.02R
JACKSON        CLOUDY    43  34  70 SE3       30.01R
LUVERNE        CLEAR     39  34  81 NW8       30.02R
MARSHALL       MOCLDY    37  34  87 N6        30.03R
MONTEVIDEO     CLOUDY    36  36 100 N3        30.07R
PIPESTONE      CLEAR     39  34  81 NW7       30.03R
REDWOOD FALLS  MOCLDY    40  37  89 CALM      30.04R
TRACY          CLOUDY    42  37  83 CALM      30.02R
WINDOM           N/A     41  36  81 CALM      30.02R
WORTHINGTON    CLOUDY    41  34  75 CALM      30.01R
$$

IAZ001>003-012>014-020>022-031-032-NEZ013-014-SDZ071-301500-
NORTHWEST IOWA

CITY           SKY/WX    TMP DP  RH WIND       PRES   REMARKS
CHEROKEE       MOSUNNY   39  37  92 CALM      30.01R
DENISON        SUNNY     37  36  93 CALM      30.01R
ESTHERVILLE    CLOUDY    41  36  82 VRB3      30.02R
LE MARS        CLEAR     39  34  81 W8        30.03R
ORANGE CITY    PTCLDY    39  34  81 W7        30.02R
SHELDON        PTCLDY    41  34  75 W5        30.00R
SIOUX CITY     CLEAR     40  34  79 N3        30.04R
SPENCER        CLOUDY    43  36  76 S3        30.01R
STORM LAKE     MOSUNNY   39  34  81 SW7       30.01R
$$

ABBREVIATIONS USED IN REMARKS
   TC - TEMPERATURE IN CELSIUS
  WCI - WIND CHILL INDEX
   HX - HEAT INDEX
  VSB - VISIBILITY




USA.gov is the U.S. government's official web portal to all federal, state and local government web resources and services.